Weather reports worldwide

Advertisment
Landsberg, Germany (10857): temperature & dewpoint: 12.01.2018 07:00:00 - 18.01.2018 07:00:00 (CET)Landsberg, Germany (10857): temperature -5cm: 12.01.2018 07:00:00 - 18.01.2018 07:00:00 (CET)Landsberg, Germany (10857): temperature -20cm & temperature -100cm: 12.01.2018 07:00:00 - 18.01.2018 07:00:00 (CET)Landsberg, Germany (10857): wind speed & gusts: 12.01.2018 07:00:00 - 18.01.2018 07:00:00 (CET)Landsberg, Germany (10857): wind direction: 12.01.2018 07:00:00 - 18.01.2018 07:00:00 (CET)Landsberg, Germany (10857): reduced air pressure: 12.01.2018 07:00:00 - 18.01.2018 07:00:00 (CET)
Date & Time tt [°C] td [°C] tt -5cm [°C] tt -20cm [°C] tt -100cm [°C] ff [km/h] ff [kn] fx [km/h] fx [kn] dd ppp [hPa]
18.01.2018 07:00:00 - - - - - - - - - - -
18.01.2018 06:00:00 1,2 -1,2 - - - 32 18 50 27 SW 1012,9
18.01.2018 05:00:00 1,1 -1,6 - - - 32 18 54 29 SW 1013,4
18.01.2018 04:00:00 0,8 -1,8 - - - 32 18 - - WSW 1014,4
18.01.2018 03:00:00 0,6 -2,0 - - - 32 18 58 31 WSW 1015,1
18.01.2018 02:00:00 0,3 -2,4 - - - 32 18 50 27 SW 1015,1
18.01.2018 01:00:00 0,3 -1,9 - - - 32 18 - - WSW 1015,3
18.01.2018 00:00:00 0,1 -1,6 - - - 32 18 47 25 WSW 1015,4
17.01.2018 23:00:00 -0,2 -0,7 - - - 32 18 50 27 WSW 1015,3
17.01.2018 22:00:00 -0,5 -1,1 - - - 36 19 - - WSW 1015,0
17.01.2018 21:00:00 -0,7 -1,5 - - - 43 23 58 31 WSW 1014,0
17.01.2018 20:00:00 0,0 -2,7 - - - 43 23 61 33 WSW 1012,8
17.01.2018 19:00:00 -0,4 -3,2 - - - 40 21 - - WSW 1012,1
17.01.2018 18:00:00 -0,4 -2,9 - - - 32 18 58 31 WSW 1011,8
17.01.2018 17:00:00 -0,2 -3,5 - - - 32 18 54 29 WSW 1011,0
17.01.2018 16:00:00 -0,1 -4,1 - - - 36 19 - - WSW 1010,5
17.01.2018 15:00:00 -0,8 -3,5 0,7 1,7 - 32 18 54 29 WSW 1009,9
17.01.2018 14:00:00 -0,4 -3,0 - - - 40 21 54 29 W 1008,5
17.01.2018 13:00:00 -1,6 -1,8 - - - 29 16 - - WNW 1007,8
17.01.2018 12:00:00 0,1 -3,2 - - - 29 16 47 25 W 1006,7
17.01.2018 11:00:00 0,2 -2,8 - - - 36 19 58 31 W 1005,8
17.01.2018 10:00:00 -0,2 -1,4 - - - 40 21 - - W 1004,4
17.01.2018 09:00:00 -0,9 -1,0 - - - 29 16 58 31 W 1003,1
17.01.2018 08:00:00 0,1 -0,7 1,2 2,1 4,7 40 21 61 33 W 1001,9
17.01.2018 07:00:00 1,9 -0,6 - - - 36 19 - - WSW 1000,3
17.01.2018 06:00:00 2,1 -0,7 - - - 29 16 54 29 SW 999,1
17.01.2018 05:00:00 2,8 0,5 - - - 29 16 47 25 SW 998,8
17.01.2018 04:00:00 2,6 0,2 - - - 32 18 - - WSW 999,4
17.01.2018 03:00:00 2,0 0,9 - - - 36 19 58 31 SW 999,2
17.01.2018 02:00:00 1,1 0,8 - - - 14 8 - - SSW 999,6
17.01.2018 01:00:00 1,9 1,1 - - - 22 12 - - SW 1001,0
17.01.2018 00:00:00 2,7 0,9 - - - 29 16 - - WSW 1001,3
16.01.2018 23:00:00 2,4 1,2 - - - 22 12 50 27 WSW 1000,5
16.01.2018 22:00:00 3,1 1,0 - - - 36 19 - - WSW 1000,7
16.01.2018 21:00:00 3,6 2,2 - - - 25 14 - - SW 1001,0
16.01.2018 20:00:00 1,9 1,2 - - - 14 8 - - SSW 1001,8
16.01.2018 19:00:00 1,9 0,4 - - - 25 14 - - W 1002,1
16.01.2018 18:00:00 2,1 1,2 - - - 25 14 47 25 WNW 1003,0
16.01.2018 17:00:00 3,6 2,4 - - - 29 16 - - W 1001,8
16.01.2018 16:00:00 3,3 2,8 - - - 22 12 - - WNW 1001,1
16.01.2018 15:00:00 5,6 3,0 3,8 2,6 - 47 25 76 41 WSW 998,7
16.01.2018 14:00:00 6,4 3,4 - - - 40 21 58 31 SW 998,2
16.01.2018 13:00:00 5,3 3,6 - - - 25 14 - - SW 999,9
16.01.2018 12:00:00 6,5 1,7 - - - 47 25 72 39 WSW 1000,9
16.01.2018 11:00:00 6,4 2,6 - - - 43 23 65 35 SW 1000,6
16.01.2018 10:00:00 5,4 2,2 - - - 47 25 - - SW 1001,5
16.01.2018 09:00:00 6,5 1,2 - - - 50 27 90 49 SW 1000,4
16.01.2018 08:00:00 5,5 1,1 1,7 1,5 4,9 32 18 54 29 SW 1000,6
16.01.2018 07:00:00 5,4 0,9 - - - 36 19 - - SW 1001,5
16.01.2018 06:00:00 5,2 0,9 - - - 32 18 58 31 SW 1002,4
16.01.2018 05:00:00 4,6 1,1 - - - 29 16 50 27 SW 1003,7
16.01.2018 04:00:00 4,1 1,2 - - - 29 16 - - SW 1004,0
16.01.2018 03:00:00 3,7 0,3 - - - 22 12 - - SSW 1004,8
16.01.2018 02:00:00 4,0 -0,6 - - - 18 10 - - SW 1005,4
16.01.2018 01:00:00 3,2 -2,6 - - - 18 10 - - S 1006,2
16.01.2018 00:00:00 2,8 -2,8 - - - 18 10 - - S 1007,5
15.01.2018 23:00:00 2,7 -2,5 - - - 14 8 - - S 1008,4
15.01.2018 22:00:00 2,5 -2,5 - - - 14 8 - - S 1009,7
15.01.2018 21:00:00 3,2 -3,9 - - - 14 8 - - SW 1010,6
15.01.2018 20:00:00 - - - - - - - - - - -
15.01.2018 19:00:00 - - - - - - - - - - -
15.01.2018 18:00:00 - - - - - - - - - - -
15.01.2018 17:00:00 - - - - - - - - - - -
15.01.2018 16:00:00 4,5 -1,9 - - - 4 2 - - ENE 1014,9
15.01.2018 15:00:00 5,6 -2,0 -0,1 1,0 - 7 4 - - WNW 1015,5
15.01.2018 14:00:00 6,7 -3,5 - - - 14 8 - - SW 1016,0
15.01.2018 13:00:00 5,5 -3,6 - - - 7 4 - - N 1017,6
15.01.2018 12:00:00 3,6 -3,2 - - - 7 4 - - S 1019,6
15.01.2018 11:00:00 0,8 -2,7 - - - 4 2 - - N 1021,4
15.01.2018 10:00:00 -1,5 -2,6 - - - 7 4 - - SSE 1022,5
15.01.2018 09:00:00 -2,4 -2,8 - - - 7 4 - - SSE 1023,0
15.01.2018 08:00:00 -3,4 -3,7 -0,2 1,2 5,0 4 2 - - SSE 1023,4
15.01.2018 07:00:00 -3,9 -4,0 - - - 7 4 - - S 1023,7
15.01.2018 06:00:00 -4,4 -4,6 - - - 7 4 - - SE 1023,9
15.01.2018 05:00:00 -4,4 -4,6 - - - 4 2 - - SE 1024,3
15.01.2018 04:00:00 -3,2 -3,4 - - - 7 4 - - ESE 1024,3
15.01.2018 03:00:00 -2,4 -2,6 - - - 4 2 - - N 1024,4
15.01.2018 02:00:00 -2,3 -2,5 - - - 4 2 - - ESE 1024,7
15.01.2018 01:00:00 -2,7 -2,8 - - - 0 0 - - N 1025,1
15.01.2018 00:00:00 -4,1 -4,3 - - - 7 4 - - E 1025,7
14.01.2018 23:00:00 -4,0 -4,1 - - - 7 4 - - NE 1025,5
14.01.2018 22:00:00 -3,8 -3,9 - - - 4 2 - - S 1025,5
14.01.2018 21:00:00 -3,4 -3,5 - - - 4 2 - - E 1024,9
14.01.2018 20:00:00 -3,1 -3,2 - - - 4 2 - - ENE 1024,7
14.01.2018 19:00:00 -2,3 -2,6 - - - 4 2 - - ENE 1024,3
14.01.2018 18:00:00 -1,1 -1,9 - - - 7 4 - - NE 1023,6
14.01.2018 17:00:00 -0,3 -1,8 - - - 11 6 - - NE 1022,9
14.01.2018 16:00:00 -0,1 -2,2 - - - 11 6 - - NE 1022,5
14.01.2018 15:00:00 0,1 -2,1 1,7 1,8 - 11 6 - - NNE 1022,3
14.01.2018 14:00:00 0,0 -2,1 - - - 11 6 - - NNE 1022,3
14.01.2018 13:00:00 -0,1 -2,3 - - - 4 2 - - N 1022,3
14.01.2018 12:00:00 -0,3 -2,8 - - - 11 6 - - NNE 1023,0
14.01.2018 11:00:00 -0,6 -3,1 - - - 7 4 - - NE 1023,4
14.01.2018 10:00:00 -0,9 -2,9 - - - 7 4 - - NE 1023,4
14.01.2018 09:00:00 -1,0 -2,8 - - - 7 4 - - ENE 1023,0
14.01.2018 08:00:00 -1,1 -2,5 0,6 1,8 5,1 11 6 - - NE 1022,6
14.01.2018 07:00:00 -1,1 -2,4 - - - 11 6 - - NE 1022,3
14.01.2018 06:00:00 -1,0 -2,3 - - - 11 6 - - NE 1022,3
14.01.2018 05:00:00 -1,0 -2,1 - - - 11 6 - - NE 1022,2
14.01.2018 04:00:00 -0,9 -1,9 - - - 11 6 - - NE 1022,3
14.01.2018 03:00:00 -0,7 -2,1 - - - 11 6 - - ENE 1022,5
14.01.2018 02:00:00 -0,7 -2,1 - - - 11 6 - - ENE 1022,5
14.01.2018 01:00:00 -0,6 -2,0 - - - 14 8 - - ENE 1022,8
14.01.2018 00:00:00 -0,5 -1,5 - - - 11 6 - - ENE 1023,3
13.01.2018 23:00:00 -0,3 -1,3 - - - 14 8 - - ENE 1023,5
13.01.2018 22:00:00 -0,1 -1,3 - - - 11 6 - - ENE 1023,5
13.01.2018 21:00:00 0,3 -1,2 - - - 14 8 - - E 1023,7
13.01.2018 20:00:00 0,3 -0,5 - - - 11 6 - - ENE 1023,8
13.01.2018 19:00:00 0,8 -1,0 - - - 14 8 - - ENE 1023,8
13.01.2018 18:00:00 1,1 -0,8 - - - 14 8 - - E 1023,9
13.01.2018 17:00:00 1,2 -0,3 - - - 11 6 - - ENE 1023,8
13.01.2018 16:00:00 1,5 -0,2 - - - 11 6 - - ENE 1023,9
13.01.2018 15:00:00 1,7 -0,4 2,1 2,5 - 14 8 - - E 1023,6
13.01.2018 14:00:00 1,6 -0,1 - - - 14 8 - - E 1023,7
13.01.2018 13:00:00 1,6 -0,2 - - - 18 10 - - E 1024,2
13.01.2018 12:00:00 1,4 -0,3 - - - 18 10 - - E 1024,8
13.01.2018 11:00:00 1,3 0,0 - - - 18 10 - - E 1025,4
13.01.2018 10:00:00 1,4 -0,2 - - - 18 10 - - E 1025,4
13.01.2018 09:00:00 1,5 -0,4 - - - 11 6 - - E 1025,4
13.01.2018 08:00:00 1,4 -0,6 1,6 2,5 5,2 18 10 - - E 1025,5
13.01.2018 07:00:00 1,4 -0,8 - - - 11 6 - - E 1025,5
13.01.2018 06:00:00 1,4 -0,4 - - - 11 6 - - ENE 1025,5
13.01.2018 05:00:00 1,3 -0,3 - - - 11 6 - - ENE 1025,8
13.01.2018 04:00:00 1,3 -0,5 - - - 14 8 - - E 1026,2
13.01.2018 03:00:00 1,3 -0,4 - - - 14 8 - - E 1026,4
13.01.2018 02:00:00 1,2 -0,4 - - - 14 8 - - E 1026,5
13.01.2018 01:00:00 1,2 -0,5 - - - 14 8 - - E 1026,7
13.01.2018 00:00:00 1,5 -0,1 - - - 14 8 - - ENE 1026,9
12.01.2018 23:00:00 1,4 -0,1 - - - 14 8 - - E 1027,0
12.01.2018 22:00:00 1,4 -0,2 - - - 18 10 - - ENE 1027,2
12.01.2018 21:00:00 1,6 -0,3 - - - 14 8 - - ENE 1027,1
12.01.2018 20:00:00 1,5 0,4 - - - 7 4 - - ENE 1026,9
12.01.2018 19:00:00 1,2 0,2 - - - 11 6 - - NE 1026,9
12.01.2018 18:00:00 0,4 -0,2 - - - 11 6 - - ENE 1026,9
12.01.2018 17:00:00 1,9 -0,4 - - - 7 4 - - NE 1026,3
12.01.2018 16:00:00 3,2 0,1 - - - 7 4 - - N 1025,4
12.01.2018 15:00:00 3,0 0,2 3,6 2,9 - 7 4 - - E 1025,3
12.01.2018 14:00:00 3,2 0,2 - - - 14 8 - - E 1024,8
12.01.2018 13:00:00 1,8 0,2 - - - 11 6 - - ENE 1025,6
12.01.2018 12:00:00 1,3 0,6 - - - 11 6 - - E 1025,9
12.01.2018 11:00:00 0,7 0,5 - - - 11 6 - - ESE 1026,0
12.01.2018 10:00:00 0,6 0,4 - - - 7 4 - - ENE 1025,6
12.01.2018 09:00:00 0,3 0,2 - - - 4 2 - - E 1025,6
12.01.2018 08:00:00 0,0 -0,1 1,8 2,7 5,3 7 4 - - NE 1025,2
12.01.2018 07:00:00 0,0 -0,1 - - - 11 6 - - NE 1024,6

tt = temperature
td = dewpoint
tt -5cm = temperature -5cm
tt -20cm = temperature -20cm
tt -100cm = temperature -100cm
ff = wind speed
fx = gusts
dd = wind direction
ppp = reduced air pressure

Next stations